Regional Weather Roundup
Issued by NWS

Home | Current Version | Previous Version | Graphics & Text | Print | Product List | Glossary On
Versions: 1 2 3 4 5 6 7 8 9 10 11 12 13 14 15 16 17 18 19 20 21 22 23 24 25 26 27 28 29 30 31 32 33 34 35 36 37 38 39 40 41 42 43 44 45 46 47 48 49
000
ASUS45 KBOI 211110
RWRID
WEATHER ROUNDUP FOR IDAHO
NATIONAL WEATHER SERVICE BOISE ID
500 AM MDT SUN SEP 21 2014

NOTE: "FAIR" INDICATES FEW OR NO CLOUDS BELOW 12000 FEET
WITH NO SIGNIFICANT WEATHER AND/OR OBSTRUCTIONS TO VISIBILITY

IDZ012-014-211200-
SOUTHWEST IDAHO


CITY           SKY/WX    TMP DP  RH WIND       PRES   REMARKS
BOISE          PTCLDY    64  43  46 SE5       30.01F
CALDWELL       PTCLDY    52  41  66 CALM      30.03R
MOUNTAIN HOME  CLOUDY    57  40  54 E5        30.03S HAZE
$$

IDZ016-017-211200-
SOUTHCENTRAL IDAHO


CITY           SKY/WX    TMP DP  RH WIND       PRES   REMARKS
BURLEY         MOCLDY    50  45  83 CALM      30.08F
JEROME         CLOUDY    65  42  43 E12       30.08S
TWIN FALLS     CLOUDY    60  40  47 S9        30.08F
$$

IDZ019>023-211200-
SOUTHEAST IDAHO


CITY           SKY/WX    TMP DP  RH WIND       PRES   REMARKS
IDAHO FALLS    MOCLDY    53  43  68 N10       30.15F
POCATELLO      CLEAR     49  45  86 NW3       30.12F
REXBURG        PTCLDY    49  40  71 E6        30.17F
$$

IDZ006-010-011-018-031-032-211200-
CENTRAL IDAHO MOUNTAINS


CITY           SKY/WX    TMP DP  RH WIND       PRES   REMARKS
MCCALL         CLEAR     47  39  74 CALM      30.14F
HAILEY         MOCLDY    54  39  58 NW10      30.20S
STANLEY          N/A     37  32  82 CALM      30.29F
SALMON         PTCLDY    46  37  71 CALM      30.18S
CHALLIS        CLEAR     49  36  61 CALM      30.21S
$$

IDZ002-004-006-007-026-211200-
NORTHERN IDAHO


CITY           SKY/WX    TMP DP  RH WIND       PRES   REMARKS
LEWISTON       CLEAR     61  38  42 CALM      29.97F
LOWELL           N/A     52  50  93 VRB3      30.07S
COEUR D`ALENE  CLEAR     61  45  55 N14       30.05R
MULLAN PASS    CLEAR     55  36  48 SE13G24   30.24S
$$


USA.gov is the U.S. government's official web portal to all federal, state and local government web resources and services.